Kerkyra, Greece

1:30 AM EET on January 20, 2018 (GMT +0200)
Ioannis Kapodistrias

Weather History for LGKR - March, 2013

Change the Weather History Date:

Monday, March 11, 2013

  Actual Average Record
Temperature  
Mean Temperature 60 °F -  
Max Temperature 65 °F 63 °F 68 °F (2007)
Min Temperature 55 °F 46 °F 35 °F (2004)
Degree Days  
Heating Degree Days 5    
Growing Degree Days 10 (Base 50)    
Moisture  
Dew Point 54 °F    
Average Humidity 84    
Maximum Humidity 100    
Minimum Humidity 62    
Precipitation  
Precipitation 0.00 in 0.11 in - ()
Sea Level Pressure  
Sea Level Pressure 29.66 in    
Wind  
Wind Speed 4 mph ()    
Max Wind Speed 15 mph    
Max Gust Speed 20 mph    
Visibility 6.3 miles    
Events      
Averages and records for this station are not official NWS values.
T = Trace of Precipitation, MM = Missing Value Source: Averaged Metar Reports

Daily Weather History Graph

Daily Weather History Graph

Search for Another Location

Airport or City:

Trip Planner

Search our weather history database for the weather conditions in past years. The results will help you decide how hot, cold, wet, or windy it might be!

Date:

Astronomy

Mar. 11, 2013 Rise Set
Actual Time 6:58 AM EET 6:43 PM EET
Civil Twilight 6:31 AM EET 7:09 PM EET
Nautical Twilight 6:00 AM EET 7:41 PM EET
Astronomical Twilight 5:28 AM EET 8:12 PM EET
Moon 6:21 AM EET (3/11) 6:35 PM EET (3/11)
Length of Visible Light 12h 38m
Length of Day
11h 44m
Waning Crescent, 0% of the Moon is Illuminated
Mar 11
Waning Crescent
Mar 11
New
Mar 19
First Quarter
Mar 27
Full
Apr 3
Last Quarter

Hourly Weather History & Observations

Time (EET) Temp. Dew Point Humidity Pressure Visibility Wind Dir Wind Speed Gust Speed Precip Events Conditions
12:20 AM 59.0 °F 57.2 °F 94% 29.71 in 6.2 mi Calm Calm - N/A   Scattered Clouds
12:50 AM 59.0 °F 57.2 °F 94% 29.71 in 6.2 mi ESE 4.6 mph - N/A   Mostly Cloudy
1:20 AM 59.0 °F 57.2 °F 94% 29.71 in 6.2 mi ESE 4.6 mph - N/A   Mostly Cloudy
1:50 AM 57.2 °F 57.2 °F 100% 29.68 in 6.2 mi Calm Calm - N/A   Mostly Cloudy
2:00 AM 57 °F 56 °F 97% 29.71 in 6 mi Calm Calm - -   Scattered Clouds
2:20 AM 57.2 °F 57.2 °F 100% 29.68 in 6.2 mi Calm Calm - N/A   Mostly Cloudy
2:50 AM 57.2 °F 57.2 °F 100% 29.68 in 6.2 mi Calm Calm - N/A   Mostly Cloudy
3:20 AM 57.2 °F 55.4 °F 94% 29.68 in 6.2 mi Calm Calm - N/A   Mostly Cloudy
3:50 AM 55.4 °F 55.4 °F 100% 29.65 in 6.2 mi Calm Calm - N/A   Scattered Clouds
4:20 AM 55.4 °F 55.4 °F 100% 29.65 in 6.2 mi Calm Calm - N/A   Scattered Clouds
4:50 AM 55.4 °F 55.4 °F 100% 29.65 in 6.2 mi Calm Calm - N/A   Scattered Clouds
5:20 AM 55.4 °F 55.4 °F 100% 29.65 in 6.2 mi Calm Calm - N/A   Scattered Clouds
5:50 AM 55.4 °F 55.4 °F 100% 29.65 in 6.2 mi Calm Calm - N/A   Mostly Cloudy
6:20 AM 57.2 °F 55.4 °F 94% 29.65 in 6.2 mi Calm Calm - N/A   Mostly Cloudy
6:50 AM 57.2 °F 55.4 °F 94% 29.65 in 6.2 mi Calm Calm - N/A   Mostly Cloudy
7:20 AM 57.2 °F 55.4 °F 94% 29.65 in 6.2 mi Calm Calm - N/A   Mostly Cloudy
7:50 AM 57.2 °F 55.4 °F 94% 29.65 in 6.2 mi Calm Calm - N/A   Mostly Cloudy
8:00 AM 58 °F 56 °F 89% 29.67 in 6 mi Calm Calm - -   Mostly Cloudy
8:20 AM 57.2 °F 55.4 °F 94% 29.65 in 6.2 mi Calm Calm - N/A   Mostly Cloudy
8:50 AM 59.0 °F 53.6 °F 82% 29.65 in 6.2 mi SSE 6.9 mph - N/A   Mostly Cloudy
9:20 AM 59.0 °F 53.6 °F 82% 29.65 in 6.2 mi SSE 6.9 mph - N/A   Mostly Cloudy
9:50 AM 59.0 °F 55.4 °F 88% 29.65 in 6.2 mi SSE 4.6 mph - N/A   Mostly Cloudy
10:20 AM 59.0 °F 55.4 °F 88% 29.65 in 6.2 mi SSE 4.6 mph - N/A   Mostly Cloudy
10:50 AM 62.6 °F 51.8 °F 68% 29.65 in 6.2 mi SW 9.2 mph - N/A   Mostly Cloudy
11:20 AM 62.6 °F 51.8 °F 68% 29.65 in 6.2 mi SW 9.2 mph - N/A   Mostly Cloudy
11:50 AM 62.6 °F 51.8 °F 68% 29.65 in 6.2 mi SW 8.1 mph - N/A   Mostly Cloudy
12:20 PM 62.6 °F 51.8 °F 68% 29.65 in 6.2 mi SW 8.1 mph - N/A   Mostly Cloudy
12:50 PM 62.6 °F 51.8 °F 68% 29.65 in 6.2 mi SSW 6.9 mph - N/A   Mostly Cloudy
1:20 PM 62.6 °F 51.8 °F 68% 29.65 in 6.2 mi WSW 11.5 mph - N/A   Mostly Cloudy
1:50 PM 64.4 °F 53.6 °F 68% 29.65 in 6.2 mi South 6.9 mph - N/A   Mostly Cloudy
2:00 PM 64 °F 54 °F 62% 29.66 in 12 mi South 6.9 mph - -   Partly Cloudy
2:20 PM 64.4 °F 53.6 °F 68% 29.65 in 6.2 mi South 9.2 mph - N/A   Mostly Cloudy
2:50 PM 64.4 °F 55.4 °F 73% 29.65 in 6.2 mi South 10.4 mph - N/A   Mostly Cloudy
3:50 PM 64.4 °F 55.4 °F 73% 29.65 in 6.2 mi South 10.4 mph - N/A   Mostly Cloudy
4:20 PM 62.6 °F 53.6 °F 72% 29.62 in 6.2 mi SSE 15.0 mph - N/A   Mostly Cloudy
4:50 PM 60.8 °F 53.6 °F 77% 29.62 in 6.2 mi SSE 11.5 mph - N/A   Mostly Cloudy
5:20 PM 60.8 °F 53.6 °F 77% 29.62 in 6.2 mi SSE 11.5 mph - N/A   Mostly Cloudy
5:50 PM 60.8 °F 53.6 °F 77% 29.62 in 6.2 mi SSW 6.9 mph - N/A   Mostly Cloudy
6:20 PM 60.8 °F 53.6 °F 77% 29.62 in 6.2 mi SSW 8.1 mph - N/A   Mostly Cloudy
6:50 PM 59.0 °F 53.6 °F 82% 29.62 in 6.2 mi SSW 8.1 mph - N/A   Mostly Cloudy
7:20 PM 59.0 °F 53.6 °F 82% 29.62 in 6.2 mi SSW 8.1 mph - N/A   Mostly Cloudy
7:50 PM 59.0 °F 53.6 °F 82% 29.65 in 6.2 mi South 13.8 mph - N/A   Mostly Cloudy
8:00 PM 59 °F 53 °F 75% 29.65 in 6 mi South 13.8 mph - -   Partly Cloudy
8:20 PM 59.0 °F 53.6 °F 82% 29.65 in 6.2 mi South 13.8 mph - N/A   Mostly Cloudy
8:50 PM 59.0 °F 53.6 °F 82% 29.65 in 6.2 mi SSW 11.5 mph - N/A   Mostly Cloudy
9:20 PM 59.0 °F 53.6 °F 82% 29.65 in 6.2 mi SSW 13.8 mph - N/A   Mostly Cloudy
10:20 PM 59.0 °F 53.6 °F 82% 29.65 in 6.2 mi SSW 8.1 mph 19.6 mph N/A   Mostly Cloudy
10:50 PM 59.0 °F 53.6 °F 82% 29.68 in 6.2 mi SSW 9.2 mph - N/A   Mostly Cloudy
11:20 PM 59.0 °F 53.6 °F 82% 29.68 in 6.2 mi SSW 9.2 mph - N/A   Mostly Cloudy
11:50 PM 59.0 °F 53.6 °F 82% 29.68 in 6.2 mi SSW 8.1 mph - N/A   Mostly Cloudy